Location: Monteux
(44.0348°N, 4.9972°E)
Time: 14:41:10
(UTC+00:00)

Meteor 1-4 Rocket - Pass Details

Date: 30 November 2020
Orbit: 449 x 500 km, 81.2° (Epoch: 26 January)

Event Time Altitude Azimuth Distance (km) Brightness Sun altitude
Rises 17:56:11 0° 207° (SSW) 2,527 6.8 -19.7°
Reaches altitude 10° 17:58:24 10° 215° (SW) 1,643 5.9 -20.1°
Maximum altitude 18:01:45 37° 284° (WNW) 750 4.0 -20.7°
Enters shadow 18:04:47 12° 352° (N) 1,511 5.0 -21.2°
